Weather History for Mount Pleasant, TX

Change the Weather History Date:

Tuesday, September 18, 2012

  Actual Average (KGGG) Record (KGGG)
Temperature  
Mean Temperature 68 °F 75 °F  
Max Temperature 80 °F 87 °F 100 °F (1936)
Min Temperature 55 °F 64 °F 48 °F (2000)
Degree Days  
Heating Degree Days 0 0  
Month to date heating degree days 0  
Since 1 July heating degree days 0  
Cooling Degree Days 2 11  
Month to date cooling degree days 237  
Year to date cooling degree days 2177  
Growing Degree Days 18 (Base 50)    
Moisture  
Dew Point 59 °F    
Average Humidity 71    
Maximum Humidity 100    
Minimum Humidity 32    
Precipitation  
Precipitation 0.00 in 0.10 in 1.07 in (2011)
Month to date precipitation 1.90  
Year to date precipitation 32.55  
Snow  
Snow 0.00 in - - ()
Month to date snowfall  
Since 1 July snowfall  
Since 1 September snowfall  
Snow Depth -    
Sea Level Pressure  
Sea Level Pressure 30.01 in    
Wind  
Wind Speed 4 mph (NNW)    
Max Wind Speed 17 mph    
Max Gust Speed 21 mph    
Visibility 10 miles    
Events      
T = Trace of Precipitation, MM = Missing Value Source: NWS Daily Summary

Daily Weather History Graph

Daily Weather History Graph

Search for Another Location

Airport:

Trip Planner

Search our weather history database for the weather conditions in past years. The results will help you decide how hot, cold, wet, or windy it might be!

Date:

Astronomy

Sep. 18, 2012 Rise Set
Actual Time 7:05 AM CDT 7:21 PM CDT
Civil Twilight 6:40 AM CDT 7:46 PM CDT
Nautical Twilight 6:12 AM CDT 8:14 PM CDT
Astronomical Twilight 5:42 AM CDT 8:44 PM CDT
Moon 9:53 AM CDT (9/18) 8:59 PM CDT (9/18)
Length of Visible Light 13h 05m
Length of Day
12h 15m
Waxing Crescent, 9% of the Moon is Illuminated
Sep 18
Waxing Crescent
Sep 22
First Quarter
Sep 29
Full
Oct 8
Last Quarter
Oct 15
New

Hourly Weather History & Observations

Time (CDT) Temp. Heat Index Dew Point Humidity Pressure Visibility Wind Dir Wind Speed Gust Speed Precip Events Conditions
12:15 AM 69.8 °F - 68.0 °F 94% 29.89 in 10.0 mi Calm Calm - N/A   Mostly Cloudy
12:35 AM 69.8 °F - 68.0 °F 94% 29.89 in 10.0 mi Calm Calm - N/A   Mostly Cloudy
12:55 AM 69.8 °F - 68.0 °F 94% 29.89 in 10.0 mi Calm Calm - N/A   Overcast
1:15 AM 71.6 °F - 68.0 °F 88% 29.89 in 10.0 mi Calm Calm - N/A   Overcast
1:35 AM 69.8 °F - 68.0 °F 94% 29.90 in 10.0 mi Calm Calm - N/A   Overcast
1:55 AM 69.8 °F - 68.0 °F 94% 29.90 in 10.0 mi Calm Calm - N/A   Mostly Cloudy
2:15 AM 69.8 °F - 68.0 °F 94% 29.90 in 10.0 mi Calm Calm - N/A   Scattered Clouds
2:35 AM 68.0 °F - 68.0 °F 100% 29.90 in 10.0 mi South 3.5 mph - N/A   Scattered Clouds
2:55 AM 68.0 °F - 68.0 °F 100% 29.90 in 7.0 mi Calm Calm - N/A   Clear
3:35 AM 68.0 °F - 68.0 °F 100% 29.89 in 10.0 mi Calm Calm - N/A   Clear
3:55 AM 68.0 °F - 68.0 °F 100% 29.90 in 10.0 mi Calm Calm - N/A   Clear
4:15 AM 68.0 °F - 66.2 °F 94% 29.90 in 10.0 mi Calm Calm - N/A   Clear
4:35 AM 68.0 °F - 66.2 °F 94% 29.90 in 10.0 mi Calm Calm - N/A   Clear
4:55 AM 64.4 °F - 64.4 °F 100% 29.91 in 2.5 mi NW 4.6 mph - N/A   Clear
5:15 AM 68.0 °F - 66.2 °F 94% 29.92 in 7.0 mi NW 10.4 mph - N/A   Clear
5:35 AM 66.2 °F - 66.2 °F 100% 29.92 in 7.0 mi NNW 4.6 mph - N/A   Clear
9:55 AM 71.6 °F - 64.4 °F 78% 30.02 in 10.0 mi North 10.4 mph 19.6 mph N/A   Clear
10:15 AM 71.6 °F - 66.2 °F 83% 30.02 in 10.0 mi NNW 12.7 mph 19.6 mph N/A   Scattered Clouds
10:35 AM 71.6 °F - 64.4 °F 78% 30.03 in 10.0 mi NNW 17.3 mph 20.7 mph N/A   Mostly Cloudy
10:55 AM 71.6 °F - 64.4 °F 78% 30.04 in 10.0 mi North 5.8 mph - N/A   Overcast
11:15 AM 71.6 °F - 64.4 °F 78% 30.04 in 10.0 mi North 6.9 mph - N/A   Overcast
11:35 AM 71.6 °F - 64.4 °F 78% 30.04 in 10.0 mi North 3.5 mph - N/A   Overcast
11:55 AM 71.6 °F - 64.4 °F 78% 30.05 in 10.0 mi WNW 9.2 mph - N/A   Overcast
12:15 PM 71.6 °F - 64.4 °F 78% 30.05 in 10.0 mi NNW 8.1 mph - N/A   Overcast
12:35 PM 71.6 °F - 64.4 °F 78% 30.06 in 10.0 mi NW 9.2 mph - N/A   Overcast
12:55 PM 71.6 °F - 64.4 °F 78% 30.06 in 10.0 mi WNW 8.1 mph - N/A   Overcast
1:15 PM 73.4 °F - 64.4 °F 73% 30.05 in 10.0 mi WNW 6.9 mph - N/A   Overcast
1:35 PM 73.4 °F - 64.4 °F 73% 30.05 in 10.0 mi Calm Calm - N/A   Overcast
2:15 PM 75.2 °F - 64.4 °F 69% 30.04 in 10.0 mi WNW 5.8 mph - N/A   Mostly Cloudy
2:35 PM 77.0 °F - 64.4 °F 65% 30.04 in 10.0 mi NW 10.4 mph - N/A   Scattered Clouds
2:55 PM 77.0 °F - 62.6 °F 61% 30.04 in 10.0 mi North 10.4 mph - N/A   Scattered Clouds
3:15 PM 77.0 °F - 60.8 °F 57% 30.04 in 10.0 mi NNW 8.1 mph - N/A   Scattered Clouds
3:35 PM 78.8 °F - 60.8 °F 54% 30.03 in 10.0 mi NNW 6.9 mph 17.3 mph N/A   Scattered Clouds
3:55 PM 78.8 °F - 60.8 °F 54% 30.02 in 10.0 mi North 8.1 mph - N/A   Clear
4:15 PM 78.8 °F - 59.0 °F 51% 30.02 in 10.0 mi North 8.1 mph 16.1 mph N/A   Clear
4:35 PM 78.8 °F - 55.4 °F 44% 30.02 in 10.0 mi NNW 9.2 mph - N/A   Scattered Clouds
4:55 PM 80.6 °F 81.1 °F 59.0 °F 48% 30.02 in 10.0 mi North 9.2 mph - N/A   Scattered Clouds
5:15 PM 78.8 °F - 51.8 °F 39% 30.01 in 10.0 mi NNW 8.1 mph - N/A   Clear
5:35 PM 78.8 °F - 50.0 °F 36% 30.01 in 10.0 mi NNW 9.2 mph - N/A   Clear
5:55 PM 78.8 °F - 46.4 °F 32% 30.02 in 10.0 mi NNW 6.9 mph - N/A   Clear
6:15 PM 77.0 °F - 46.4 °F 34% 30.02 in 10.0 mi NNW 8.1 mph - N/A   Clear
6:35 PM 77.0 °F - 44.6 °F 32% 30.02 in 10.0 mi NNW 8.1 mph - N/A   Clear
6:55 PM 73.4 °F - 44.6 °F 36% 30.02 in 10.0 mi North 5.8 mph - N/A   Clear
7:15 PM 71.6 °F - 44.6 °F 38% 30.03 in 10.0 mi North 8.1 mph - N/A   Clear
7:35 PM 71.6 °F - 44.6 °F 38% 30.03 in 10.0 mi North 6.9 mph - N/A   Clear
7:55 PM 69.8 °F - 42.8 °F 38% 30.04 in 10.0 mi North 6.9 mph - N/A   Clear
8:15 PM 69.8 °F - 42.8 °F 38% 30.05 in 10.0 mi North 5.8 mph - N/A   Clear
8:35 PM 68.0 °F - 46.4 °F 46% 30.06 in 10.0 mi North 4.6 mph - N/A   Clear
8:55 PM 66.2 °F - 46.4 °F 49% 30.07 in 10.0 mi North 4.6 mph - N/A   Clear
9:15 PM 62.6 °F - 50.0 °F 63% 30.07 in 10.0 mi NNE 3.5 mph - N/A   Clear
9:35 PM 64.4 °F - 46.4 °F 52% 30.08 in 10.0 mi North 3.5 mph - N/A   Clear
9:55 PM 60.8 °F - 53.6 °F 77% 30.09 in 10.0 mi Calm Calm - N/A   Clear
10:15 PM 59.0 °F - 53.6 °F 82% 30.09 in 10.0 mi North 3.5 mph - N/A   Clear
10:35 PM 59.0 °F - 51.8 °F 77% 30.09 in 10.0 mi Calm Calm - N/A   Clear
10:55 PM 57.2 °F - 51.8 °F 82% 30.10 in 10.0 mi North 4.6 mph - N/A   Clear
11:15 PM 57.2 °F - 50.0 °F 77% 30.10 in 10.0 mi North 3.5 mph - N/A   Clear
11:35 PM 55.4 °F - 53.6 °F 94% 30.10 in 10.0 mi Calm Calm - N/A   Clear
11:55 PM 55.4 °F - 51.8 °F 88% 30.10 in 10.0 mi Calm Calm - N/A   Clear